Location: Absher
(46.5583°N, 107.9840°W)
Time: 07:05:08
(UTC+00:00)

STRAND 1 - Pass Details

Date: 08 April 2023
Orbit: 767 x 779 km, 98.4° (Epoch: 03 June)

Event Time Altitude Azimuth Distance (km) Brightness Sun altitude
Rises 02:46:42 0° 8° (N) 3,250 ? -10.3°
Reaches altitude 10° 02:49:06 10° 2° (N) 2,318 ? -10.7°
Maximum altitude 02:53:55 44° 292° (WNW) 1,063 ? -11.5°
Drops below altitude 10° 02:58:42 10° 221° (SW) 2,305 ? -12.2°
Sets 03:01:05 0° 215° (SW) 3,228 ? -12.6°
